Flag for Russia Weather past 2 weeks in Pyatigorsk, Russia

Now
81 °F

Broken clouds.


Feels Like: 80 °F
Forecast: 61 / 78 °F
Wind: 13 mph from Southeast

Location: Mineral'Nye Vody

Current Time: Jul 28, 2014 at 5:47:15 PM

Latest Report: Jul 28, 2014 at 5:00 PM


Visibility: N/A

Pressure: 29.98 "Hg

Humidity: 34%

Dew point: 50 °F

Location of PyatigorskLocation

Historic Weather in Pyatigorsk — Graph

°F

Pyatigorsk temperature yesterday

Maximum temperature yesterday: 91 °F (at 1:00 PM)
Minimum temperature yesterday: 61 °F (at 5:30 AM)
Average temperature yesterday: 77 °F

Past Weeks' High & Low Weather Summary

 TemperatureHumidityPressure
High93 °F (Jul 17, 4:00 PM)100% (Jul 19, 6:30 AM)30.01 "Hg (Jul 19, 6:30 AM)
Low54 °F (Jul 22, 4:00 AM)20% (Jul 23, 4:00 PM)29.68 "Hg (Jul 19, 5:00 PM)
Average74 °F59%29.84 "Hg
* Reported Jul 13 4:00 PM — Jul 28 4:30 PM, Pyatigorsk, Weather by CustomWeather, © 2014

Note: Actual official high and low records may vary slightly from our data, if they occured in-between our weather recording intervals... More about our weather records

Advertising

Pyatigorsk weather history for previous 24 hours

 ConditionsComfort  
Time TempWeatherWind HumidityBarometerVisibility
4:30 PM
Jul 28
81 °FBroken clouds.15 mph34%29.98 "HgN/A
4:00 PM82 °FBroken clouds.13 mph35%30.01 "HgN/A
3:30 PM81 °FBroken clouds.13 mph39%30.01 "HgN/A
3:00 PM79 °FBroken clouds.15 mph42%30.01 "HgN/A
2:30 PM79 °FBroken clouds.15 mph42%30.01 "HgN/A
2:00 PM77 °FBroken clouds.15 mph47%30.01 "HgN/A
1:30 PM75 °FBroken clouds.13 mph54%30.01 "HgN/A
1:00 PM75 °FBroken clouds.13 mph54%30.01 "HgN/A
12:30 PM75 °FBroken clouds.10 mph50%30.01 "HgN/A
12:00 PM73 °FBroken clouds.10 mph53%30.01 "HgN/A
11:30 AM73 °FBroken clouds.13 mph47%30.01 "HgN/A
11:00 AM73 °FBroken clouds.13 mph47%30.01 "HgN/A
10:30 AM72 °FBroken clouds.10 mph44%30.01 "HgN/A
10:00 AM72 °FBroken clouds.13 mph41%30.01 "HgN/A
9:30 AM72 °FBroken clouds.13 mph38%30.01 "HgN/A
9:00 AM73 °FBroken clouds.13 mph33%30.01 "HgN/A
8:30 AM70 °FBroken clouds.13 mph35%30.01 "HgN/A
8:00 AM70 °FBroken clouds.10 mph35%30.01 "HgN/A
7:30 AM70 °FPartly sunny.8 mph35%30.01 "HgN/A
6:30 AM70 °FPartly cloudy.8 mph35%30.01 "HgN/A
6:00 AM70 °FPassing clouds.8 mph38%30.01 "HgN/A
5:30 AM70 °FPassing clouds.8 mph40%29.98 "HgN/A
5:00 AM70 °FPassing clouds.8 mph38%29.98 "HgN/A
4:30 AM70 °FPassing clouds.6 mph38%29.98 "HgN/A
4:00 AM70 °FPassing clouds.3 mph35%29.98 "HgN/A
3:30 AM72 °FPassing clouds.6 mph29%29.98 "HgN/A
3:00 AM72 °FPassing clouds.6 mph29%29.98 "HgN/A
2:30 AM72 °FPartly cloudy.3 mph29%29.98 "HgN/A
2:00 AM73 °FPartly cloudy.8 mph27%29.98 "HgN/A
1:30 AM73 °FPartly cloudy.10 mph27%29.98 "HgN/A
1:00 AM73 °FPartly cloudy.10 mph27%29.95 "HgN/A
12:30 AM75 °FPartly cloudy.10 mph29%29.98 "HgN/A
12:00 AM77 °FPartly cloudy.10 mph30%29.95 "HgN/A
11:30 PM
Jul 27
79 °FPartly cloudy.15 mph30%29.95 "HgN/A
11:00 PM79 °FPartly cloudy.13 mph32%29.95 "HgN/A
10:30 PM81 °FPartly cloudy.8 mph30%29.95 "HgN/A
10:00 PM75 °FPartly cloudy.No wind47%29.95 "HgN/A
9:30 PM75 °FBroken clouds.1 mph50%29.92 "HgN/A
9:00 PM77 °FBroken clouds.3 mph47%29.92 "HgN/A
8:30 PM77 °FBroken clouds.6 mph47%29.89 "HgN/A
8:00 PM77 °FBroken clouds.6 mph44%29.89 "HgN/A
7:30 PM81 °FBroken clouds.1 mph37%29.92 "HgN/A
7:00 PM82 °FBroken clouds.8 mph32%29.92 "HgN/A
6:30 PM81 °FSprinkles. Broken clouds.13 mph37%29.92 "HgN/A
6:00 PM81 °FSprinkles. Broken clouds.6 mph39%29.92 "HgN/A
5:30 PM84 °FBroken clouds.10 mph27%29.92 "HgN/A
5:00 PM86 °FBroken clouds.13 mph25%29.92 "HgN/A
Weather by CustomWeather, © 2014

See weather overviewHow to use our weather pages